Tracking 30970 objects as of 3-Jul-2025
HD Live streaming from Space Station
objects crossing your sky now

FENGYUN 1C DEB

Track FENGYUN 1C DEB now!
10-day predictions


NORAD ID: 30471
Int'l Code: 1999-025AGJ
Perigee: 799.1 km
Apogee: 916.6 km
Inclination: 99.1 °
Period: 101.9 minutes
Semi major axis: 7228 km
RCS: 0.033 m2 (small)
Launch date: May 10, 1999
Source: People's Republic of China (PRC)
Launch site: Taiyaun Space Center, China (TSC)

Note: This is SATELLITE DEBRIS
Your satellite tracking list
Your tracking list is empty




NASA's NSSDC Master Catalog

Two Line Element Set (TLE):
1 30471U 99025AGJ 25183.72650553  .00001825  00000-0  98082-3 0  9998
2 30471  99.0587 269.4459 0081287 355.6969 162.0619 14.12534650941407
Source of the keplerian elements: AFSPC